• In Germany
  • List of Countries
  • For 7 days
  • Water Temperature
  • Satellite Maps
  • Weather Map
  • Weather Widgets
  • user-avatar
    Login

    Hourly Weather Sevan

    Today, 24 April, Tuesday

    Time Temperature Precipitation Wind Pressure Humidity
    00:00 +7°C° 0 mm 1 mps 638 mmHg 56%
    01:00 +7°C° 0 mm 1 mps 638 mmHg 54%
    02:00 +6°C° 0 mm 1 mps 638 mmHg 51%
    03:00 +6°C° 0 mm 1 mps 638 mmHg 48%
    04:00 +6°C° 0 mm 1 mps 638 mmHg 49%
    05:00 +6°C° 0 mm 1 mps 638 mmHg 49%
    06:00 +6°C° 0 mm 1 mps 639 mmHg 50%
    07:00 +7°C° 0 mm 2 mps 639 mmHg 50%
    08:00 +9°C° 0 mm 2 mps 640 mmHg 49%
    09:00 +12°C° 0 mm 2 mps 640 mmHg 49%
    10:00 +12°C° 0 mm 3 mps 641 mmHg 47%
    11:00 +13°C° 0 mm 3 mps 641 mmHg 44%
    12:00 +14°C° 0 mm 3 mps 641 mmHg 42%
    13:00 +14°C° 0 mm 3 mps 641 mmHg 41%
    14:00 +14°C° 0 mm 3 mps 642 mmHg 41%
    15:00 +16°C° 0 mm 3 mps 642 mmHg 40%
    16:00 +14°C° 0 mm 3 mps 642 mmHg 44%
    17:00 +14°C° 0 mm 2 mps 642 mmHg 48%
    18:00 +14°C° 0 mm 2 mps 642 mmHg 51%
    19:00 +12°C° 0 mm 2 mps 642 mmHg 56%
    20:00 +10°C° 0 mm 2 mps 642 mmHg 60%
    21:00 +8°C° 0 mm 2 mps 642 mmHg 65%
    22:00 +8°C° 0 mm 2 mps 642 mmHg 67%
    23:00 +7°C° 0 mm 2 mps 642 mmHg 70%

    Tomorrow, 25 April, Wednesday

    Time Temperature Precipitation Wind Pressure Humidity
    00:00 +8°C° 0 mm 1 mps 642 mmHg 72%
    01:00 +8°C° 0 mm 1 mps 643 mmHg 73%
    02:00 +7°C° 0 mm 1 mps 643 mmHg 74%
    03:00 +7°C° 0 mm 1 mps 643 mmHg 74%
    04:00 +7°C° 0 mm 1 mps 643 mmHg 73%
    05:00 +8°C° 0 mm 1 mps 643 mmHg 71%
    06:00 +8°C° 0 mm 1 mps 643 mmHg 69%
    07:00 +10°C° 0 mm 1 mps 643 mmHg 62%
    08:00 +12°C° 0 mm 1 mps 644 mmHg 54%
    09:00 +14°C° 0 mm 2 mps 644 mmHg 47%
    10:00 +15°C° 0 mm 2 mps 644 mmHg 44%
    11:00 +16°C° 0 mm 2 mps 644 mmHg 41%
    12:00 +17°C° 0 mm 2 mps 644 mmHg 38%
    13:00 +18°C° 0 mm 2 mps 644 mmHg 37%
    14:00 +18°C° 0 mm 2 mps 643 mmHg 36%
    15:00 +18°C° 0 mm 2 mps 643 mmHg 34%
    16:00 +18°C° 0 mm 2 mps 643 mmHg 39%
    17:00 +17°C° 0 mm 2 mps 643 mmHg 43%
    18:00 +16°C° 0 mm 1 mps 642 mmHg 47%
    19:00 +14°C° 0.1 mm 1 mps 642 mmHg 52%
    20:00 +13°C° 0.1 mm 1 mps 642 mmHg 57%
    21:00 +12°C° 0.1 mm 1 mps 642 mmHg 62%
    22:00 +11°C° 0 mm 1 mps 642 mmHg 65%
    23:00 +11°C° 0 mm 1 mps 642 mmHg 68%

    Day after tomorrow, 26 April, Thursday

    Time Temperature Precipitation Wind Pressure Humidity
    00:00 +9°C° 0 mm 2 mps 642 mmHg 71%
    01:00 +10°C° 0 mm 1 mps 642 mmHg 71%
    02:00 +10°C° 0 mm 1 mps 642 mmHg 72%
    03:00 +9°C° 0 mm 1 mps 642 mmHg 73%
    04:00 +9°C° 0 mm 1 mps 642 mmHg 72%
    05:00 +10°C° 0 mm 1 mps 642 mmHg 71%
    06:00 +10°C° 0 mm 1 mps 642 mmHg 70%
    07:00 +12°C° 0 mm 1 mps 643 mmHg 61%
    08:00 +14°C° 0 mm 1 mps 643 mmHg 53%
    09:00 +16°C° 0 mm 1 mps 644 mmHg 44%
    10:00 +18°C° 0 mm 1 mps 644 mmHg 42%
    11:00 +19°C° 0 mm 1 mps 644 mmHg 40%
    12:00 +19°C° 0 mm 2 mps 644 mmHg 37%
    13:00 +19°C° 0.1 mm 2 mps 644 mmHg 37%
    14:00 +20°C° 0.1 mm 2 mps 644 mmHg 37%
    15:00 +20°C° 0.1 mm 2 mps 643 mmHg 36%
    16:00 +19°C° 0.3 mm 2 mps 643 mmHg 40%
    17:00 +19°C° 0.3 mm 1 mps 643 mmHg 44%
    18:00 +18°C° 0.3 mm 1 mps 643 mmHg 48%
    19:00 +16°C° 0.1 mm 1 mps 643 mmHg 53%
    20:00 +14°C° 0.1 mm 2 mps 643 mmHg 58%
    21:00 +13°C° 0.1 mm 2 mps 643 mmHg 64%
    22:00 +12°C° 0 mm 2 mps 643 mmHg 67%
    23:00 +12°C° 0 mm 2 mps 643 mmHg 70%

    27 April, Friday

    Time Temperature Precipitation Wind Pressure Humidity
    00:00 +10°C° 0 mm 2 mps 643 mmHg 74%
    01:00 +10°C° 0 mm 2 mps 643 mmHg 75%
    02:00 +10°C° 0 mm 2 mps 642 mmHg 76%
    03:00 +9°C° 0 mm 2 mps 642 mmHg 77%
    04:00 +10°C° 0 mm 2 mps 642 mmHg 76%
    05:00 +10°C° 0 mm 2 mps 642 mmHg 75%
    06:00 +11°C° 0 mm 1 mps 642 mmHg 74%
    07:00 +13°C° 0 mm 1 mps 643 mmHg 65%
    08:00 +15°C° 0 mm 2 mps 643 mmHg 56%
    09:00 +17°C° 0 mm 2 mps 644 mmHg 47%
    10:00 +18°C° 0 mm 2 mps 644 mmHg 44%
    11:00 +19°C° 0 mm 2 mps 644 mmHg 42%
    12:00 +20°C° 0 mm 2 mps 643 mmHg 39%
    13:00 +20°C° 0.2 mm 2 mps 643 mmHg 41%
    14:00 +20°C° 0.2 mm 2 mps 643 mmHg 42%
    15:00 +20°C° 0.2 mm 2 mps 642 mmHg 44%
    16:00 +19°C° 0.9 mm 2 mps 642 mmHg 51%
    17:00 +18°C° 0.9 mm 2 mps 642 mmHg 58%
    18:00 +16°C° 0.9 mm 2 mps 642 mmHg 65%
    19:00 +16°C° 0.8 mm 2 mps 642 mmHg 69%
    20:00 +15°C° 0.8 mm 1 mps 642 mmHg 73%
    21:00 +14°C° 0.8 mm 1 mps 642 mmHg 77%
    22:00 +14°C° 0.3 mm 1 mps 642 mmHg 78%
    23:00 +13°C° 0.3 mm 1 mps 641 mmHg 80%

    28 April, Saturday

    Time Temperature Precipitation Wind Pressure Humidity
    00:00 +13°C° 0.3 mm 2 mps 641 mmHg 81%
    01:00 +12°C° 0.1 mm 1 mps 641 mmHg 81%
    02:00 +12°C° 0.1 mm 1 mps 641 mmHg 81%
    03:00 +12°C° 0.1 mm 1 mps 640 mmHg 81%
    04:00 +12°C° 0.1 mm 1 mps 640 mmHg 80%
    05:00 +12°C° 0.1 mm 1 mps 640 mmHg 80%
    06:00 +12°C° 0.1 mm 1 mps 640 mmHg 80%
    07:00 +13°C° 0.1 mm 1 mps 640 mmHg 74%
    08:00 +14°C° 0.1 mm 1 mps 641 mmHg 67%
    09:00 +16°C° 0.1 mm 1 mps 641 mmHg 61%
    10:00 +16°C° 0.4 mm 1 mps 641 mmHg 60%
    11:00 +17°C° 0.4 mm 2 mps 641 mmHg 59%
    12:00 +17°C° 0.4 mm 2 mps 641 mmHg 59%
    13:00 +17°C° 0.6 mm 2 mps 641 mmHg 60%
    14:00 +17°C° 0.6 mm 2 mps 641 mmHg 61%
    15:00 +17°C° 0.6 mm 2 mps 640 mmHg 62%
    16:00 +16°C° 0.8 mm 2 mps 641 mmHg 64%
    17:00 +16°C° 0.8 mm 2 mps 641 mmHg 66%
    18:00 +15°C° 0.8 mm 2 mps 641 mmHg 68%
    19:00 +14°C° 0.5 mm 2 mps 641 mmHg 70%
    20:00 +14°C° 0.5 mm 2 mps 642 mmHg 73%
    21:00 +13°C° 0.5 mm 1 mps 642 mmHg 75%
    22:00 +12°C° 0.4 mm 1 mps 642 mmHg 76%
    23:00 +12°C° 0.4 mm 1 mps 642 mmHg 78%

    29 April, Sunday

    Time Temperature Precipitation Wind Pressure Humidity
    00:00 +11°C° 0.4 mm 1 mps 642 mmHg 79%
    01:00 +11°C° 0.3 mm 1 mps 642 mmHg 80%
    02:00 +11°C° 0.3 mm 1 mps 642 mmHg 80%
    03:00 +11°C° 0.3 mm 1 mps 642 mmHg 81%
    04:00 +11°C° 0.3 mm 1 mps 642 mmHg 81%
    05:00 +11°C° 0.3 mm 1 mps 642 mmHg 81%
    06:00 +11°C° 0.3 mm 1 mps 642 mmHg 81%
    07:00 +12°C° 0.3 mm 1 mps 643 mmHg 76%
    08:00 +13°C° 0.3 mm 1 mps 643 mmHg 72%
    09:00 +14°C° 0.3 mm 1 mps 643 mmHg 67%
    10:00 +15°C° 0.3 mm 1 mps 643 mmHg 64%
    11:00 +16°C° 0.3 mm 1 mps 643 mmHg 61%
    12:00 +17°C° 0.3 mm 2 mps 643 mmHg 58%
    13:00 +17°C° 0.4 mm 2 mps 643 mmHg 58%
    14:00 +17°C° 0.4 mm 2 mps 643 mmHg 57%
    15:00 +18°C° 0.4 mm 2 mps 642 mmHg 57%
    16:00 +17°C° 0.5 mm 2 mps 642 mmHg 60%
    17:00 +17°C° 0.5 mm 2 mps 642 mmHg 63%
    18:00 +16°C° 0.5 mm 2 mps 642 mmHg 67%
    19:00 +15°C° 0.7 mm 2 mps 642 mmHg 71%
    20:00 +14°C° 0.7 mm 1 mps 643 mmHg 74%
    21:00 +14°C° 0.7 mm 1 mps 643 mmHg 78%
    22:00 +13°C° 0.8 mm 1 mps 643 mmHg 80%
    23:00 +13°C° 0.8 mm 1 mps 643 mmHg 81%
    Show more